N180GS LESU-LEZG

Flight info

Callsign N180GS
Flight time N/A
Altitude 6000
Route REBUL1Z LLE ZAR
Aircraft BE36/L-VGD/C

Departure

Time 2026-04-29 20:36
Airport Pirineus - la Seu d'Urgel Airport (LESU)

Arrival

Time N/A
Airport Zaragoza Airport (LEZG)
Time Latitude Longitude Altitude Speed Heading
2026-04-29 20:05 42.33801 1.40476 2672 ft 0 kts 30°
2026-04-29 20:09 42.33800 1.40475 2678 ft 3 kts 30°
2026-04-29 20:10 42.33786 1.40465 2678 ft 0 kts 30°
2026-04-29 20:15 42.33787 1.40465 2678 ft 0 kts 30°
2026-04-29 20:25 42.33787 1.40466 2674 ft 1 kts 36°
2026-04-29 20:25 42.33771 1.40492 2680 ft 7 kts 129°
2026-04-29 20:26 42.33745 1.40548 2680 ft 6 kts 137°
2026-04-29 20:26 42.33687 1.40523 2680 ft 9 kts 206°
2026-04-29 20:26 42.33650 1.40541 2680 ft 8 kts 118°
2026-04-29 20:26 42.33621 1.40611 2680 ft 7 kts 120°
2026-04-29 20:27 42.33629 1.40676 2680 ft 11 kts 32°
2026-04-29 20:27 42.33655 1.40698 2680 ft 15 kts 32°
2026-04-29 20:27 42.33813 1.40828 2680 ft 23 kts 31°
2026-04-29 20:27 42.33956 1.40944 2680 ft 26 kts 31°
2026-04-29 20:28 42.34100 1.41062 2677 ft 21 kts 31°
2026-04-29 20:28 42.34249 1.41182 2677 ft 27 kts 31°
2026-04-29 20:28 42.34398 1.41301 2677 ft 17 kts 31°
2026-04-29 20:28 42.34479 1.41397 2677 ft 12 kts 50°
2026-04-29 20:29 42.34518 1.41476 2677 ft 12 kts 57°
2026-04-29 20:29 42.34569 1.41536 2677 ft 7 kts 356°
2026-04-29 20:29 42.34589 1.41517 2677 ft 0 kts 297°
2026-04-29 20:34 42.34590 1.41515 2677 ft 2 kts 297°
2026-04-29 20:34 42.34586 1.41457 2677 ft 11 kts 205°
2026-04-29 20:35 42.34431 1.41330 2677 ft 54 kts 211°
2026-04-29 20:35 42.33949 1.40954 2738 ft 95 kts 208°
2026-04-29 20:35 42.33320 1.40486 2970 ft 110 kts 210°
2026-04-29 20:35 42.32707 1.39803 3222 ft 120 kts 240°
2026-04-29 20:36 42.32170 1.38919 3480 ft 125 kts 218°
2026-04-29 20:36 42.31480 1.38163 3727 ft 130 kts 219°
2026-04-29 20:36 42.30779 1.37395 3969 ft 133 kts 218°
2026-04-29 20:36 42.30050 1.36606 4217 ft 135 kts 218°
2026-04-29 20:37 42.29243 1.35970 4467 ft 136 kts 192°
2026-04-29 20:37 42.28305 1.35800 4726 ft 136 kts 188°
2026-04-29 20:37 42.27367 1.35601 4989 ft 136 kts 188°
2026-04-29 20:37 42.26428 1.35410 5248 ft 136 kts 187°
2026-04-29 20:38 42.25491 1.35222 5503 ft 136 kts 187°
2026-04-29 20:38 42.24562 1.35035 5751 ft 133 kts 186°
2026-04-29 20:38 42.23652 1.34854 5997 ft 131 kts 186°
2026-04-29 20:38 42.22721 1.34667 6052 ft 141 kts 187°
2026-04-29 20:39 42.21707 1.34462 6061 ft 152 kts 187°
2026-04-29 20:39 42.20630 1.34245 6061 ft 160 kts 187°
2026-04-29 20:39 42.19508 1.34021 6057 ft 166 kts 187°
2026-04-29 20:39 42.18364 1.33791 6016 ft 168 kts 186°
2026-04-29 20:40 42.17210 1.33559 6009 ft 171 kts 186°
2026-04-29 20:40 42.16025 1.33322 6008 ft 173 kts 186°
2026-04-29 20:40 42.14832 1.33081 5991 ft 171 kts 186°
2026-04-29 20:40 42.13646 1.32849 5998 ft 175 kts 187°
2026-04-29 20:41 42.12429 1.32600 5995 ft 177 kts 186°
2026-04-29 20:41 42.11210 1.32356 6011 ft 177 kts 186°
2026-04-29 20:41 42.10001 1.32027 6007 ft 179 kts 198°
2026-04-29 20:41 42.08848 1.31410 6006 ft 178 kts 199°
2026-04-29 20:42 42.07692 1.30809 5999 ft 178 kts 199°
2026-04-29 20:42 42.06551 1.30222 5997 ft 177 kts 199°
2026-04-29 20:42 42.05402 1.29629 5996 ft 177 kts 199°
2026-04-29 20:42 42.04254 1.29037 5995 ft 177 kts 199°
2026-04-29 20:43 42.03105 1.28444 5998 ft 177 kts 199°
2026-04-29 20:43 42.01962 1.27826 5996 ft 178 kts 206°
2026-04-29 20:43 42.01149 1.26582 5991 ft 182 kts 242°
2026-04-29 20:43 42.00651 1.25009 5995 ft 183 kts 245°
2026-04-29 20:44 42.00159 1.23431 5995 ft 183 kts 243°
2026-04-29 20:44 41.99608 1.21882 5996 ft 183 kts 241°
2026-04-29 20:44 41.99026 1.20356 5996 ft 183 kts 240°
2026-04-29 20:44 41.98444 1.18838 5996 ft 183 kts 240°
2026-04-29 20:45 41.97865 1.17317 5996 ft 182 kts 241°
2026-04-29 20:45 41.97294 1.15822 5999 ft 182 kts 241°
2026-04-29 20:45 41.96720 1.14315 6006 ft 181 kts 240°
2026-04-29 20:45 41.96143 1.12803 5999 ft 182 kts 239°
2026-04-29 20:46 41.95564 1.11288 5996 ft 182 kts 239°
2026-04-29 20:46 41.94985 1.09772 5998 ft 182 kts 239°
2026-04-29 20:46 41.94403 1.08251 6000 ft 183 kts 239°
2026-04-29 20:46 41.93820 1.06725 6004 ft 184 kts 239°
2026-04-29 20:47 41.93233 1.05191 6004 ft 185 kts 240°
2026-04-29 20:47 41.92652 1.03674 6007 ft 185 kts 239°
2026-04-29 20:47 41.92063 1.02135 6007 ft 185 kts 239°
2026-04-29 20:47 41.91477 1.00605 6009 ft 184 kts 239°
2026-04-29 20:48 41.90890 0.99074 6012 ft 185 kts 239°
2026-04-29 20:48 41.90301 0.97540 6012 ft 184 kts 239°
2026-04-29 20:48 41.89716 0.96015 6014 ft 184 kts 239°
2026-04-29 20:48 41.89132 0.94494 6015 ft 183 kts 239°
2026-04-29 20:49 41.88553 0.92981 6024 ft 181 kts 239°
2026-04-29 20:49 41.87974 0.91482 6017 ft 181 kts 239°
2026-04-29 20:49 41.87400 0.89987 6018 ft 180 kts 239°
2026-04-29 20:49 41.86824 0.88495 6014 ft 179 kts 239°
2026-04-29 20:50 41.86252 0.87007 6015 ft 179 kts 239°
2026-04-29 20:50 41.85680 0.85524 6016 ft 180 kts 239°
2026-04-29 20:50 41.85105 0.84030 6012 ft 180 kts 239°
2026-04-29 20:50 41.84532 0.82544 6013 ft 179 kts 239°
2026-04-29 20:51 41.83965 0.81076 6016 ft 179 kts 239°
2026-04-29 20:51 41.83390 0.79587 6018 ft 180 kts 239°
2026-04-29 20:51 41.82811 0.78086 6020 ft 182 kts 239°
2026-04-29 20:51 41.82229 0.76581 6018 ft 182 kts 239°
2026-04-29 20:52 41.81648 0.75078 6023 ft 182 kts 239°
2026-04-29 20:52 41.81065 0.73571 6022 ft 182 kts 239°
2026-04-29 20:52 41.80481 0.72062 6022 ft 182 kts 239°
2026-04-29 20:52 41.79898 0.70554 6023 ft 182 kts 239°
2026-04-29 20:53 41.79313 0.69044 6020 ft 182 kts 239°
2026-04-29 20:53 41.78728 0.67536 6022 ft 182 kts 239°
2026-04-29 20:53 41.78143 0.66028 6021 ft 182 kts 239°
2026-04-29 20:53 41.77566 0.64539 6022 ft 182 kts 239°
2026-04-29 20:54 41.76401 0.61540 6024 ft 180 kts 239°
2026-04-29 20:54 41.75825 0.60057 6024 ft 179 kts 239°
2026-04-29 20:54 41.75249 0.58579 6024 ft 179 kts 239°
2026-04-29 20:55 41.74675 0.57101 6021 ft 179 kts 239°
2026-04-29 20:55 41.74100 0.55623 6021 ft 179 kts 239°
2026-04-29 20:55 41.73526 0.54149 6020 ft 178 kts 239°
2026-04-29 20:55 41.73013 0.52638 6017 ft 180 kts 252°
2026-04-29 20:56 41.72907 0.50958 6021 ft 182 kts 265°
2026-04-29 20:56 41.72843 0.49268 6021 ft 182 kts 264°
2026-04-29 20:56 41.72773 0.47580 6022 ft 182 kts 264°
2026-04-29 20:56 41.72706 0.45913 6022 ft 182 kts 264°
2026-04-29 20:57 41.72638 0.44226 6019 ft 182 kts 264°
2026-04-29 20:57 41.72571 0.42537 6019 ft 182 kts 264°
2026-04-29 20:57 41.72503 0.40841 6018 ft 182 kts 264°
2026-04-29 20:57 41.72434 0.39149 6017 ft 182 kts 264°
2026-04-29 20:58 41.72367 0.37461 6022 ft 182 kts 264°
2026-04-29 20:58 41.72297 0.35771 6020 ft 182 kts 264°
2026-04-29 20:58 41.72228 0.34078 6020 ft 182 kts 264°
2026-04-29 20:58 41.72158 0.32380 6018 ft 183 kts 264°
2026-04-29 20:59 41.72088 0.30682 6015 ft 183 kts 264°
2026-04-29 20:59 41.72019 0.29004 6013 ft 183 kts 264°
2026-04-29 20:59 41.71949 0.27307 6014 ft 183 kts 264°
2026-04-29 20:59 41.71878 0.25604 6011 ft 183 kts 264°
2026-04-29 21:00 41.71806 0.23900 6008 ft 184 kts 264°
2026-04-29 21:00 41.71735 0.22190 6008 ft 184 kts 264°
2026-04-29 21:00 41.71663 0.20481 6009 ft 184 kts 264°
2026-04-29 21:00 41.71591 0.18773 6007 ft 184 kts 264°
2026-04-29 21:01 41.71518 0.17060 6009 ft 184 kts 264°
2026-04-29 21:01 41.71446 0.15353 6008 ft 184 kts 264°
2026-04-29 21:01 41.71373 0.13643 6001 ft 184 kts 264°
2026-04-29 21:01 41.71300 0.11939 6000 ft 183 kts 264°
2026-04-29 21:02 41.71227 0.10238 6000 ft 183 kts 264°
2026-04-29 21:02 41.71153 0.08540 5998 ft 183 kts 264°
2026-04-29 21:02 41.71080 0.06843 5996 ft 183 kts 264°
2026-04-29 21:02 41.71007 0.05166 5994 ft 183 kts 263°
2026-04-29 21:03 41.70934 0.03464 5994 ft 183 kts 263°
2026-04-29 21:03 41.70859 0.01767 5995 ft 183 kts 263°
2026-04-29 21:03 41.70784 0.00069 5994 ft 182 kts 264°
2026-04-29 21:03 41.70710 -0.01630 5995 ft 183 kts 263°
2026-04-29 21:04 41.70634 -0.03335 5993 ft 184 kts 263°
2026-04-29 21:04 41.70559 -0.05043 5991 ft 184 kts 262°
2026-04-29 21:04 41.70483 -0.06748 5991 ft 184 kts 263°
2026-04-29 21:04 41.70406 -0.08452 5992 ft 183 kts 264°
2026-04-29 21:05 41.70331 -0.10153 5998 ft 183 kts 264°
2026-04-29 21:05 41.70255 -0.11855 5997 ft 184 kts 263°
2026-04-29 21:05 41.70177 -0.13561 5998 ft 183 kts 264°
2026-04-29 21:05 41.70101 -0.15260 5997 ft 183 kts 264°
2026-04-29 21:06 41.70024 -0.16956 5994 ft 183 kts 263°
2026-04-29 21:06 41.69947 -0.18655 5993 ft 183 kts 263°
2026-04-29 21:06 41.69869 -0.20356 5996 ft 184 kts 264°
2026-04-29 21:06 41.69790 -0.22063 5996 ft 184 kts 264°
2026-04-29 21:07 41.69713 -0.23769 5997 ft 184 kts 263°
2026-04-29 21:07 41.69635 -0.25455 5999 ft 184 kts 263°
2026-04-29 21:07 41.69582 -0.26615 5999 ft 185 kts 262°
2026-04-29 21:07 41.69476 -0.28888 5998 ft 185 kts 262°
2026-04-29 21:08 41.69396 -0.30603 5986 ft 185 kts 262°
2026-04-29 21:08 41.69315 -0.32320 5987 ft 185 kts 263°
2026-04-29 21:08 41.69236 -0.34034 5985 ft 183 kts 263°
2026-04-29 21:08 41.69156 -0.35734 5988 ft 183 kts 263°
2026-04-29 21:09 41.69076 -0.37431 5987 ft 182 kts 262°
2026-04-29 21:09 41.68997 -0.39118 5986 ft 180 kts 263°
2026-04-29 21:09 41.68916 -0.40800 5987 ft 181 kts 264°
2026-04-29 21:09 41.68835 -0.42472 5988 ft 181 kts 264°
2026-04-29 21:10 41.68756 -0.44157 5983 ft 181 kts 264°
2026-04-29 21:10 41.68676 -0.45841 5979 ft 181 kts 264°
2026-04-29 21:10 41.68595 -0.47530 5980 ft 182 kts 263°
2026-04-29 21:10 41.68506 -0.49223 5982 ft 183 kts 263°
2026-04-29 21:11 41.68407 -0.50921 5982 ft 184 kts 263°
2026-04-29 21:11 41.68319 -0.52632 5983 ft 184 kts 263°
2026-04-29 21:11 41.68213 -0.54321 5983 ft 184 kts 262°
2026-04-29 21:11 41.68103 -0.56030 5986 ft 185 kts 261°
2026-04-29 21:12 41.68013 -0.57752 5986 ft 186 kts 262°
2026-04-29 21:12 41.67925 -0.59475 5984 ft 186 kts 262°
2026-04-29 21:12 41.67828 -0.61221 5978 ft 185 kts 262°
2026-04-29 21:12 41.67732 -0.62920 5977 ft 186 kts 262°
2026-04-29 21:13 41.67641 -0.64641 5972 ft 185 kts 263°
2026-04-29 21:13 41.67530 -0.66349 5971 ft 184 kts 262°
2026-04-29 21:13 41.67417 -0.68049 5971 ft 184 kts 262°
2026-04-29 21:13 41.67324 -0.69755 5970 ft 184 kts 263°
2026-04-29 21:14 41.67218 -0.71462 5971 ft 184 kts 262°
2026-04-29 21:14 41.67112 -0.73163 5970 ft 183 kts 262°
2026-04-29 21:14 41.66995 -0.74861 5874 ft 184 kts 262°
2026-04-29 21:14 41.66875 -0.76556 5636 ft 186 kts 262°
2026-04-29 21:15 41.66754 -0.78283 5387 ft 184 kts 262°
2026-04-29 21:15 41.66649 -0.79973 5137 ft 180 kts 262°
2026-04-29 21:15 41.66549 -0.81635 4894 ft 179 kts 262°
2026-04-29 21:15 41.66447 -0.83288 4644 ft 178 kts 262°
2026-04-29 21:16 41.66380 -0.84379 4477 ft 178 kts 262°
2026-04-29 21:16 41.66279 -0.86023 4225 ft 178 kts 262°
2026-04-29 21:16 41.66176 -0.87671 3971 ft 178 kts 262°
2026-04-29 21:16 41.66073 -0.89325 3727 ft 179 kts 262°
2026-04-29 21:17 41.65928 -0.91545 3399 ft 180 kts 262°
2026-04-29 21:17 41.65856 -0.92648 3234 ft 180 kts 262°
2026-04-29 21:17 41.65740 -0.94318 2992 ft 181 kts 262°
2026-04-29 21:17 41.65630 -0.95945 2968 ft 172 kts 262°
2026-04-29 21:18 41.65514 -0.97533 2967 ft 172 kts 262°
2026-04-29 21:18 41.65403 -0.99123 2965 ft 171 kts 262°
2026-04-29 21:18 41.65301 -1.00703 2964 ft 171 kts 262°
2026-04-29 21:18 41.65196 -1.02293 2964 ft 172 kts 262°
2026-04-29 21:19 41.65086 -1.03885 2959 ft 172 kts 262°
2026-04-29 21:19 41.65224 -1.05448 2960 ft 173 kts 297°
2026-04-29 21:19 41.66011 -1.06643 2963 ft 172 kts 318°
2026-04-29 21:19 41.66875 -1.07740 2966 ft 175 kts 318°
2026-04-29 21:20 41.67873 -1.08667 2964 ft 173 kts 347°
2026-04-29 21:20 41.68998 -1.08514 2960 ft 164 kts 33°
2026-04-29 21:20 41.69694 -1.07392 2966 ft 157 kts 71°
2026-04-29 21:20 41.69944 -1.05981 2971 ft 155 kts 85°
2026-04-29 21:21 41.70065 -1.04541 2974 ft 156 kts 86°
2026-04-29 21:21 41.70175 -1.03098 2978 ft 156 kts 87°
2026-04-29 21:21 41.70277 -1.01647 2980 ft 157 kts 87°
2026-04-29 21:21 41.70380 -1.00191 2980 ft 157 kts 87°
2026-04-29 21:22 41.70487 -0.98737 2978 ft 158 kts 87°
2026-04-29 21:22 41.70590 -0.97273 2979 ft 158 kts 87°
2026-04-29 21:22 41.70698 -0.95813 2979 ft 157 kts 87°
2026-04-29 21:22 41.70808 -0.94363 2980 ft 157 kts 87°
2026-04-29 21:23 41.70922 -0.92908 2983 ft 157 kts 87°
2026-04-29 21:23 41.71035 -0.91454 2984 ft 156 kts 87°
2026-04-29 21:23 41.71078 -0.90015 2981 ft 154 kts 102°
2026-04-29 21:23 41.70708 -0.88678 2982 ft 154 kts 116°
2026-04-29 21:24 41.70196 -0.87417 2981 ft 155 kts 121°
2026-04-29 21:24 41.69645 -0.86175 2982 ft 156 kts 121°
2026-04-29 21:24 41.69094 -0.84923 2983 ft 156 kts 121°
2026-04-29 21:24 41.68551 -0.83680 2983 ft 157 kts 120°
2026-04-29 21:25 41.68370 -0.82269 2976 ft 161 kts 79°
2026-04-29 21:25 41.69042 -0.81076 2974 ft 169 kts 35°
2026-04-29 21:25 41.70182 -0.80618 2978 ft 173 kts 15°
2026-04-29 21:25 41.71367 -0.80318 2980 ft 174 kts
2026-04-29 21:26 41.72543 -0.80743 2969 ft 179 kts 333°
2026-04-29 21:26 41.73631 -0.81566 2971 ft 179 kts 335°
2026-04-29 21:26 41.74767 -0.82257 2974 ft 179 kts 338°
2026-04-29 21:26 41.75905 -0.82926 2978 ft 179 kts 338°
2026-04-29 21:27 41.77046 -0.83596 2980 ft 180 kts 338°
2026-04-29 21:27 41.78180 -0.84271 2980 ft 181 kts 339°
2026-04-29 21:27 41.79318 -0.84988 2980 ft 181 kts 338°
2026-04-29 21:27 41.80455 -0.85720 2981 ft 182 kts 338°
2026-04-29 21:28 41.81596 -0.86465 2981 ft 183 kts 338°
2026-04-29 21:28 41.82740 -0.87214 2981 ft 183 kts 338°
2026-04-29 21:28 41.83882 -0.87963 2980 ft 183 kts 338°
2026-04-29 21:28 41.85026 -0.88713 2980 ft 183 kts 338°
2026-04-29 21:29 41.86170 -0.89464 2984 ft 183 kts 338°
2026-04-29 21:29 41.87367 -0.89892 2974 ft 175 kts 10°
2026-04-29 21:29 41.88386 -0.89213 2978 ft 161 kts 54°
2026-04-29 21:29 41.89028 -0.88015 2985 ft 158 kts 62°
2026-04-29 21:30 41.89619 -0.86795 2987 ft 159 kts 63°
2026-04-29 21:30 41.90226 -0.85512 2992 ft 166 kts 63°
2026-04-29 21:30 41.90845 -0.84191 2992 ft 168 kts 63°
2026-04-29 21:30 41.91462 -0.82855 2995 ft 169 kts 63°
2026-04-29 21:31 41.92080 -0.81507 2991 ft 171 kts 63°
2026-04-29 21:31 41.92708 -0.80139 2992 ft 173 kts 63°
2026-04-29 21:31 41.93343 -0.78764 2990 ft 173 kts 63°
2026-04-29 21:31 41.93978 -0.77386 2989 ft 173 kts 63°
2026-04-29 21:32 41.94610 -0.76008 2990 ft 173 kts 63°
2026-04-29 21:32 41.95236 -0.74632 2991 ft 172 kts 64°
2026-04-29 21:32 41.95825 -0.73242 2992 ft 170 kts 65°
2026-04-29 21:32 41.96408 -0.71855 2990 ft 170 kts 65°
2026-04-29 21:33 41.96989 -0.70469 2990 ft 171 kts 65°
2026-04-29 21:33 41.97570 -0.69082 2976 ft 169 kts 65°
2026-04-29 21:33 41.98142 -0.67718 2975 ft 166 kts 65°
2026-04-29 21:33 41.98708 -0.66367 2980 ft 166 kts 65°
2026-04-29 21:34 41.99271 -0.64996 2985 ft 168 kts 65°
2026-04-29 21:34 41.99830 -0.63608 2985 ft 169 kts 65°
2026-04-29 21:34 42.00380 -0.62235 2987 ft 169 kts 65°
2026-04-29 21:34 42.00945 -0.60838 2993 ft 170 kts 65°
2026-04-29 21:35 42.01506 -0.59447 2994 ft 169 kts 65°
2026-04-29 21:35 42.02063 -0.58050 2996 ft 170 kts 65°
2026-04-29 21:35 42.02620 -0.56644 2997 ft 171 kts 65°
2026-04-29 21:35 42.03184 -0.55238 3000 ft 171 kts 65°
2026-04-29 21:36 42.03750 -0.53830 3000 ft 171 kts 65°
2026-04-29 21:36 42.04316 -0.52416 3001 ft 172 kts 65°
2026-04-29 21:36 42.04888 -0.51003 3002 ft 172 kts 65°
2026-04-29 21:36 42.05459 -0.49594 3002 ft 171 kts 65°
2026-04-29 21:37 42.06030 -0.48187 3003 ft 171 kts 65°
2026-04-29 21:37 42.06579 -0.46824 2999 ft 159 kts 65°
2026-04-29 21:37 42.07093 -0.45580 2985 ft 146 kts 65°
2026-04-29 21:37 42.07575 -0.44440 2986 ft 135 kts 65°
2026-04-29 21:38 42.08036 -0.43372 2989 ft 129 kts 65°
2026-04-29 21:38 42.08476 -0.42345 2990 ft 125 kts 65°
2026-04-29 21:38 42.08898 -0.41368 2987 ft 116 kts 65°
2026-04-29 21:38 42.09297 -0.40466 2985 ft 107 kts 65°
2026-04-29 21:39 42.09644 -0.39614 2895 ft 103 kts 75°
2026-04-29 21:39 42.09824 -0.38680 2693 ft 101 kts 85°
2026-04-29 21:39 42.09832 -0.37744 2480 ft 100 kts 99°
2026-04-29 21:39 42.09687 -0.36845 2364 ft 99 kts 107°
2026-04-29 21:40 42.09481 -0.36023 2291 ft 85 kts 109°
2026-04-29 21:40 42.09263 -0.35322 2158 ft 81 kts 116°
2026-04-29 21:40 42.08995 -0.34659 2066 ft 80 kts 118°
2026-04-29 21:40 42.08711 -0.34013 1992 ft 81 kts 120°
2026-04-29 21:41 42.08410 -0.33372 1870 ft 80 kts 123°
2026-04-29 21:41 42.08119 -0.32776 1777 ft 72 kts 120°
2026-04-29 21:41 42.07874 -0.32263 1762 ft 56 kts 122°
2026-04-29 21:41 42.07736 -0.31990 1763 ft 22 kts 130°
2026-04-29 21:42 42.07739 -0.31964 1764 ft 14 kts 299°
2026-04-29 21:42 42.07806 -0.32114 1761 ft 22 kts 301°
2026-04-29 21:42 42.07891 -0.32286 1762 ft 21 kts 323°
2026-04-29 21:42 42.07988 -0.32244 1766 ft 15 kts 31°
2026-04-29 21:43 42.08059 -0.32183 1764 ft 8 kts 33°
2026-04-29 21:43 42.08114 -0.32134 1766 ft 11 kts 34°
2026-04-29 21:43 42.08179 -0.32080 1764 ft 12 kts 35°
2026-04-29 21:43 42.08224 -0.32060 1766 ft 2 kts 263°
2026-04-29 21:44 42.08218 -0.32068 1764 ft 0 kts 212°